TimeCST,TemperatureF,Dew PointF,Humidity,Sea Level PressureIn,VisibilityMPH,Wind Direction,Wind SpeedMPH,Gust SpeedMPH,PrecipitationIn,Events,Conditions,WindDirDegrees,DateUTC
12:53 AM,34.0,28.9,82,30.29,10.0,WSW,3.5,-,N/A,,Clear,240,2013-03-03 06:53:00
1:53 AM,34.0,28.9,82,30.29,8.0,Calm,Calm,-,N/A,,Clear,0,2013-03-03 07:53:00
2:53 AM,33.8,30.2,87,30.27,8.0,West,3.5,-,N/A,,Clear,260,2013-03-03 08:53:00
3:53 AM,33.1,28.9,85,30.25,10.0,Calm,Calm,-,N/A,,Clear,0,2013-03-03 09:53:00
4:53 AM,32.0,28.4,87,30.26,7.0,Calm,Calm,-,N/A,,Clear,0,2013-03-03 10:53:00
5:53 AM,30.9,28.9,92,30.27,7.0,Calm,Calm,-,N/A,,Clear,0,2013-03-03 11:53:00
6:53 AM,30.9,28.9,92,30.29,7.0,Calm,Calm,-,N/A,,Clear,0,2013-03-03 12:53:00
7:53 AM,39.9,33.1,77,30.30,10.0,Calm,Calm,-,N/A,,Clear,0,2013-03-03 13:53:00
8:53 AM,48.0,28.9,48,30.30,10.0,Calm,Calm,-,N/A,,Clear,0,2013-03-03 14:53:00
9:53 AM,52.0,25.0,35,30.30,10.0,SE,5.8,-,N/A,,Clear,130,2013-03-03 15:53:00
10:53 AM,55.9,24.1,29,30.28,10.0,SSE,5.8,-,N/A,,Clear,150,2013-03-03 16:53:00
11:53 AM,57.9,25.0,28,30.26,10.0,South,4.6,-,N/A,,Clear,180,2013-03-03 17:53:00
12:53 PM,60.1,27.0,28,30.22,10.0,SSW,8.1,-,N/A,,Clear,210,2013-03-03 18:53:00
1:53 PM,60.1,30.0,32,30.18,10.0,South,8.1,-,N/A,,Clear,180,2013-03-03 19:53:00
2:39 PM,60.8,33.8,36,30.16,10.0,South,12.7,-,N/A,,Clear,180,2013-03-03 20:39:00
2:53 PM,60.8,33.8,36,30.17,10.0,South,12.7,-,N/A,,Partly Cloudy,180,2013-03-03 20:53:00
3:53 PM,59.0,34.0,39,30.15,10.0,South,10.4,-,N/A,,Clear,190,2013-03-03 21:53:00
4:53 PM,57.0,35.1,44,30.14,10.0,South,12.7,-,N/A,,Clear,180,2013-03-03 22:53:00
5:53 PM,53.1,37.0,55,30.14,10.0,South,10.4,-,N/A,,Clear,180,2013-03-03 23:53:00
6:53 PM,46.9,37.9,71,30.13,10.0,SSE,6.9,-,N/A,,Clear,150,2013-03-04 00:53:00
7:53 PM,46.0,39.0,76,30.12,10.0,SSE,8.1,-,N/A,,Clear,160,2013-03-04 01:53:00
8:53 PM,48.0,42.1,80,30.12,10.0,SSE,8.1,-,N/A,,Clear,160,2013-03-04 02:53:00
9:53 PM,48.9,43.0,80,30.10,10.0,SSE,8.1,-,N/A,,Clear,160,2013-03-04 03:53:00
10:53 PM,51.1,46.0,83,30.08,10.0,SSE,9.2,-,N/A,,Clear,160,2013-03-04 04:53:00
11:53 PM,52.0,46.9,83,30.06,10.0,SSE,9.2,-,N/A,,Clear,160,2013-03-04 05:53:00